FW8533 Weather Reports


time (UTC)temp
C
wind
direction
speed
KPH
gust
KPH
rain 1hr
cm
rain 24hr
cm
rain mn
cm
humidity
%
barometer
mb
20260505140547 10 134 0.0 0.0 0.00 0.00 0.00 44 1015.5
20260505125000 3 135 0.0 0.0 0.00 0.00 0.00 57 1015.1
20260505124457 3 119 0.0 0.0 0.00 0.00 0.00 59 1015.0
20260505123953 3 139 0.0 0.0 0.00 0.00 0.00 59 1015.3
20260505123450 3 131 0.0 0.0 0.00 0.00 0.00 58 1015.0
20260505122946 3 130 0.0 0.0 0.00 0.00 0.00 57 1015.0
20260505122444 3 131 0.0 0.0 0.00 0.00 0.00 57 1015.0
20260505121940 3 120 1.6 1.6 0.00 0.00 0.00 57 1014.9
20260505121437 3 122 1.6 1.6 0.00 0.00 0.00 57 1014.9
20260505120933 3 139 0.0 0.0 0.00 0.00 0.00 56 1014.9
20260505120430 3 139 0.0 0.0 0.00 0.00 0.00 55 1015.1
20260505115929 4 120 1.6 1.6 0.00 0.00 0.00 55 1015.3
20260505115426 4 130 0.0 1.6 0.00 0.00 0.00 55 1015.1
20260505114924 4 85 1.6 3.2 0.00 0.00 0.00 55 1015.5
20260505114419 5 127 0.0 1.6 0.00 0.00 0.00 54 1015.5
20260505113916 5 104 1.6 3.2 0.00 0.00 0.00 54 1015.3
20260505113413 5 133 0.0 0.0 0.00 0.00 0.00 54 1015.1
20260505112909 5 139 0.0 0.0 0.00 0.00 0.00 54 1015.3
20260505112407 5 137 0.0 0.0 0.00 0.00 0.00 53 1015.1
20260505111902 5 145 0.0 0.0 0.00 0.00 0.00 52 1015.0
20260505111357 5 132 0.0 0.0 0.00 0.00 0.00 53 1015.1
20260505110853 5 139 0.0 0.0 0.00 0.00 0.00 52 1015.0
20260505110351 6 140 0.0 0.0 0.00 0.00 0.00 51 1015.0
20260505101821 5 136 0.0 0.0 0.00 0.00 0.00 51 1015.0
20260505101316 5 140 0.0 0.0 0.00 0.00 0.00 50 1014.6
20260505100812 6 136 0.0 0.0 0.00 0.00 0.00 49 1014.9
20260505100309 5 130 0.0 0.0 0.00 0.00 0.00 50 1014.9
20260505095805 6 138 0.0 0.0 0.00 0.00 0.00 50 1014.9
20260505095304 6 124 0.0 1.6 0.00 0.00 0.00 49 1014.8
20260505094758 6 124 1.6 1.6 0.00 0.00 0.00 49 1015.0
20260505094255 6 127 0.0 0.0 0.00 0.00 0.00 49 1014.9
20260505093751 6 131 0.0 0.0 0.00 0.00 0.00 48 1014.9
20260505093249 6 132 0.0 0.0 0.00 0.00 0.00 48 1014.9
20260505092745 7 139 0.0 0.0 0.00 0.00 0.00 47 1015.0
20260505092244 7 136 0.0 0.0 0.00 0.00 0.00 45 1015.0
20260505091741 7 136 0.0 0.0 0.00 0.00 0.00 44 1015.3
20260505091239 7 140 0.0 0.0 0.00 0.00 0.00 44 1015.1
20260505090736 7 150 0.0 0.0 0.00 0.00 0.00 43 1015.8
20260505090234 8 143 0.0 0.0 0.00 0.00 0.00 42 1015.6
20260505085731 8 141 1.6 3.2 0.00 0.00 0.00 42 1015.5
20260505085230 7 135 0.0 0.0 0.00 0.00 0.00 44 1015.6
20260505084726 7 129 1.6 1.6 0.00 0.00 0.00 43 1015.5
20260505084226 7 116 0.0 1.6 0.00 0.00 0.00 43 1015.8
20260505083722 7 139 0.0 0.0 0.00 0.00 0.00 46 1016.3
20260505083219 7 131 0.0 0.0 0.00 0.00 0.00 45 1016.3
20260505082715 8 130 0.0 0.0 0.00 0.00 0.00 44 1016.2
20260505082213 8 135 0.0 0.0 0.00 0.00 0.00 42 1016.2
20260505081708 8 141 0.0 0.0 0.00 0.00 0.00 41 1016.3
20260505081206 8 149 1.6 1.6 0.00 0.00 0.00 41 1016.3
20260505080703 8 131 0.0 0.0 0.00 0.00 0.00 43 1016.0
20260505080158 8 146 0.0 0.0 0.00 0.00 0.00 45 1016.2
20260505075654 8 123 0.0 0.0 0.00 0.00 0.00 42 1016.0
20260505075151 9 139 0.0 0.0 0.00 0.00 0.00 41 1016.0
20260505074648 8 121 1.6 3.2 0.00 0.00 0.00 40 1016.0
20260505074145 8 313 0.0 0.0 0.00 0.00 0.00 43 1015.8
20260505073643 8 135 1.6 1.6 0.00 0.00 0.00 42 1015.8
20260505073141 8 150 0.0 0.0 0.00 0.00 0.00 42 1015.6
20260505072636 8 126 0.0 1.6 0.00 0.00 0.00 42 1015.5
20260505072133 8 116 0.0 0.0 0.00 0.00 0.00 42 1015.5
20260505071628 8 144 0.0 0.0 0.00 0.00 0.00 43 1015.4
20260505071127 8 146 0.0 0.0 0.00 0.00 0.00 43 1015.5
20260505070624 8 139 0.0 0.0 0.00 0.00 0.00 44 1015.5
20260505070119 8 115 1.6 1.6 0.00 0.00 0.00 43 1015.3
20260505065616 7 118 1.6 3.2 0.00 0.00 0.00 45 1015.1
20260505065112 7 132 0.0 1.6 0.00 0.00 0.00 44 1015.1
20260505064609 7 133 0.0 0.0 0.00 0.00 0.00 46 1015.3
20260505064108 7 94 1.6 3.2 0.00 0.00 0.00 47 1015.3
20260505063605 6 123 1.6 1.6 0.00 0.00 0.00 45 1015.5
20260505063100 6 128 0.0 0.0 0.00 0.00 0.00 48 1015.3
20260505062557 6 111 1.6 1.6 0.00 0.00 0.00 47 1015.0
20260505062055 6 107 1.6 1.6 0.00 0.00 0.00 47 1015.1
20260505061552 6 124 1.6 1.6 0.00 0.00 0.00 47 1015.4
20260505061050 6 133 0.0 0.0 0.00 0.00 0.00 48 1015.4
20260505060547 6 132 0.0 0.0 0.00 0.00 0.00 47 1015.1
20260505060044 6 122 0.0 0.0 0.00 0.00 0.00 45 1014.9
20260505055539 7 136 0.0 0.0 0.00 0.00 0.00 45 1015.3
20260505055036 6 127 0.0 0.0 0.00 0.00 0.00 45 1015.3
20260505054533 7 125 0.0 0.0 0.00 0.00 0.00 44 1015.3
20260505054031 7 143 0.0 0.0 0.00 0.00 0.00 43 1015.5
20260505053528 7 126 0.0 0.0 0.00 0.00 0.00 42 1015.3
20260505053025 7 137 0.0 0.0 0.00 0.00 0.00 42 1015.5
20260505052522 7 132 0.0 0.0 0.00 0.00 0.00 41 1015.5
20260505052019 8 118 1.6 1.6 0.00 0.00 0.00 41 1015.4
20260505051516 8 134 0.0 0.0 0.00 0.00 0.00 40 1015.5
20260505051014 8 133 0.0 0.0 0.00 0.00 0.00 38 1015.4
20260505050512 8 134 0.0 0.0 0.00 0.00 0.00 39 1015.5
20260505041439 9 133 0.0 0.0 0.00 0.00 0.00 36 1015.8
20260505040937 8 129 0.0 0.0 0.00 0.00 0.00 36 1015.6
20260505040434 9 147 0.0 0.0 0.00 0.00 0.00 37 1015.6
20260505035931 9 132 0.0 0.0 0.00 0.00 0.00 36 1015.6
20260505035427 9 148 0.0 1.6 0.00 0.00 0.00 35 1015.9
20260505034924 9 133 0.0 0.0 0.00 0.00 0.00 35 1015.5
20260505034420 10 137 0.0 0.0 0.00 0.00 0.00 36 1015.8
20260505033918 10 131 0.0 0.0 0.00 0.00 0.00 35 1015.8
20260505033414 9 139 0.0 0.0 0.00 0.00 0.00 36 1015.4
20260505032913 9 137 0.0 0.0 0.00 0.00 0.00 35 1015.6
20260505032409 9 136 0.0 0.0 0.00 0.00 0.00 34 1015.5
20260505031906 9 134 0.0 0.0 0.00 0.00 0.00 35 1015.3
20260505031403 9 125 0.0 1.6 0.00 0.00 0.00 34 1015.4
20260505030900 9 132 0.0 0.0 0.00 0.00 0.00 34 1015.1
20260505030356 9 138 0.0 1.6 0.00 0.00 0.00 35 1015.3
20260505025851 9 130 0.0 1.6 0.00 0.00 0.00 34 1015.0
20260505025349 9 132 0.0 1.6 0.00 0.00 0.00 33 1014.8
20260505024848 10 132 0.0 0.0 0.00 0.00 0.00 33 1014.9
20260505024345 10 134 0.0 0.0 0.00 0.00 0.00 33 1015.1
20260505023842 10 136 0.0 0.0 0.00 0.00 0.00 32 1014.9
20260505023339 11 139 0.0 0.0 0.00 0.00 0.00 31 1014.8
20260505022836 11 136 0.0 0.0 0.00 0.00 0.00 31 1015.0
20260505022333 -17 0.0 0.0 0.00 0.00 0.00 1014.8
20260505021830 11 138 0.0 0.0 0.00 0.00 0.00 28 1015.0
20260505021327 11 138 0.0 0.0 0.00 0.00 0.00 28 1014.9
20260505020822 12 136 0.0 0.0 0.00 0.00 0.00 28 1014.9
20260505020318 12 135 0.0 0.0 0.00 0.00 0.00 28 1014.9
20260505015815 12 136 0.0 0.0 0.00 0.00 0.00 27 1015.0
20260505015312 13 144 0.0 0.0 0.00 0.00 0.00 27 1014.9
20260505014810 13 145 1.6 1.6 0.00 0.00 0.00 26 1015.1
20260505014307 13 150 0.0 1.6 0.00 0.00 0.00 26 1014.8
20260505013803 13 164 1.6 1.6 0.00 0.00 0.00 26 1014.8
20260505013300 13 168 3.2 3.2 0.00 0.00 0.00 25 1014.6
20260505012759 13 148 0.0 0.0 0.00 0.00 0.00 25 1014.4
20260505012256 14 139 3.2 4.8 0.00 0.00 0.00 24 1014.5
20260505011751 14 148 3.2 3.2 0.00 0.00 0.00 24 1014.8
20260505011249 14 151 0.0 1.6 0.00 0.00 0.00 24 1014.6
20260505010744 14 204 4.8 4.8 0.00 0.00 0.00 24 1014.9
20260505010241 15 165 0.0 0.0 0.00 0.00 0.00 23 1014.8
20260505005737 15 171 3.2 3.2 0.00 0.00 0.00 23 1014.8
20260505005234 15 175 0.0 1.6 0.00 0.00 0.00 22 1014.6
20260505004731 15 108 3.2 4.8 0.00 0.00 0.00 23 1014.8
20260505004227 15 154 1.6 1.6 0.00 0.00 0.00 23 1014.6
20260505003725 15 175 3.2 4.8 0.00 0.00 0.00 22 1014.8
20260505003223 15 254 8.0 9.7 0.00 0.00 0.00 22 1014.8
20260505002719 15 149 3.2 4.8 0.00 0.00 0.00 22 1014.8
20260505002216 16 154 3.2 4.8 0.00 0.00 0.00 22 1014.8
20260505001714 16 276 6.4 9.7 0.00 0.00 0.00 22 1014.9
20260505001211 16 198 1.6 3.2 0.00 0.00 0.00 22 1014.9
20260505000708 16 174 8.0 8.0 0.00 0.00 0.00 22 1015.0
20260505000206 16 158 3.2 3.2 0.00 0.00 0.00 22 1015.0
20260504235702 16 150 1.6 1.6 0.00 0.00 0.00 22 1014.9
20260504235158 16 135 1.6 1.6 0.00 0.00 0.00 22 1014.9
20260504234656 16 170 1.6 3.2 0.00 0.00 0.00 21 1014.9
20260504234153 16 227 9.7 12.9 0.00 0.00 0.00 21 1014.6
20260504233649 16 205 6.4 8.0 0.00 0.00 0.00 21 1014.5
20260504233145 16 119 3.2 3.2 0.00 0.00 0.00 22 1014.5
20260504232643 16 222 6.4 8.0 0.00 0.00 0.00 21 1014.5
20260504232139 17 153 3.2 3.2 0.00 0.00 0.00 21 1014.9
20260504231636 18 146 1.6 1.6 0.00 0.00 0.00 20 1014.3
20260504231132 17 269 6.4 9.7 0.00 0.00 0.00 21 1014.5
20260504230629 18 129 3.2 3.2 0.00 0.00 0.00 21 1014.6
20260504230127 18 151 1.6 1.6 0.00 0.00 0.00 21 1014.8
20260504225625 18 174 1.6 3.2 0.00 0.00 0.00 21 1014.5
20260504225121 18 157 9.7 17.7 0.00 0.00 0.00 20 1014.1
20260504224618 18 161 1.6 1.6 0.00 0.00 0.00 21 1014.3
20260504224115 18 195 4.8 4.8 0.00 0.00 0.00 20 1014.4
20260504223612 18 166 3.2 3.2 0.00 0.00 0.00 19 1014.4
20260504223108 18 205 8.0 9.7 0.00 0.00 0.00 20 1014.5
20260504222605 18 230 8.0 9.7 0.00 0.00 0.00 20 1014.5
20260504222102 18 43 1.6 4.8 0.00 0.00 0.00 20 1014.6
20260504221559 18 183 3.2 4.8 0.00 0.00 0.00 19 1014.5
20260504221056 18 261 8.0 9.7 0.00 0.00 0.00 21 1014.6
20260504220552 18 146 0.0 1.6 0.00 0.00 0.00 21 1014.5
20260504220050 19 181 4.8 8.0 0.00 0.00 0.00 20 1014.8
20260504215546 18 237 4.8 8.0 0.00 0.00 0.00 20 1014.5
20260504215044 19 214 3.2 3.2 0.00 0.00 0.00 20 1015.0
20260504214539 19 150 3.2 4.8 0.00 0.00 0.00 20 1014.9
20260504214036 18 244 6.4 9.7 0.00 0.00 0.00 21 1015.0
20260504213532 18 206 3.2 4.8 0.00 0.00 0.00 22 1015.1
20260504213030 18 213 4.8 4.8 0.00 0.00 0.00 22 1015.3
20260504212525 20 183 6.4 8.0 0.00 0.00 0.00 22 1015.1
20260504212023 18 149 1.6 3.2 0.00 0.00 0.00 23 1015.3
20260504211520 18 166 1.6 1.6 0.00 0.00 0.00 22 1015.4
20260504211017 18 170 4.8 8.0 0.00 0.00 0.00 24 1015.6
20260504210514 18 192 4.8 8.0 0.00 0.00 0.00 24 1015.6
20260504210011 18 194 3.2 4.8 0.00 0.00 0.00 25 1015.4
20260504205509 18 171 4.8 4.8 0.00 0.00 0.00 24 1015.4
20260504205006 18 288 3.2 4.8 0.00 0.00 0.00 23 1015.6
20260504204504 18 211 6.4 9.7 0.00 0.00 0.00 26 1015.8
20260504204003 17 148 3.2 3.2 0.00 0.00 0.00 26 1015.9
20260504203500 18 145 3.2 3.2 0.00 0.00 0.00 24 1016.0
20260504202956 17 168 3.2 8.0 0.00 0.00 0.00 26 1015.9
20260504202453 18 209 4.8 8.0 0.00 0.00 0.00 26 1016.0
20260504201950 17 192 4.8 4.8 0.00 0.00 0.00 27 1016.2
20260504201447 17 181 4.8 4.8 0.00 0.00 0.00 29 1016.0
20260504200944 17 195 3.2 4.8 0.00 0.00 0.00 28 1016.2
20260504200441 17 155 8.0 11.3 0.00 0.00 0.00 29 1016.0
20260504195938 17 177 4.8 4.8 0.00 0.00 0.00 29 1016.2
20260504195433 17 221 1.6 3.2 0.00 0.00 0.00 31 1016.5
20260504194930 17 203 4.8 4.8 0.00 0.00 0.00 32 1016.5
20260504194426 17 158 4.8 4.8 0.00 0.00 0.00 31 1016.4
20260504193922 17 218 4.8 8.0 0.00 0.00 0.00 31 1016.0
20260504193420 17 120 4.8 4.8 0.00 0.00 0.00 31 1016.3
20260504192919 17 213 8.0 11.3 0.00 0.00 0.00 31 1016.4
20260504192415 16 111 4.8 4.8 0.00 0.00 0.00 33 1016.5
20260504191914 16 114 1.6 3.2 0.00 0.00 0.00 32 1016.5
20260504191412 17 198 4.8 8.0 0.00 0.00 0.00 33 1016.4
20260504190906 16 163 3.2 3.2 0.00 0.00 0.00 34 1016.5
20260504190403 16 150 0.0 1.6 0.00 0.00 0.00 35 1016.7
20260504185900 15 164 4.8 4.8 0.00 0.00 0.00 37 1016.9
20260504185357 15 152 1.6 1.6 0.00 0.00 0.00 37 1016.8
20260504184853 16 170 1.6 4.8 0.00 0.00 0.00 35 1017.0
20260504184349 15 185 4.8 4.8 0.00 0.00 0.00 38 1017.0
20260504183845 15 162 0.0 1.6 0.00 0.00 0.00 37 1017.0
20260504183342 16 205 6.4 8.0 0.00 0.00 0.00 36 1016.9
20260504182840 16 158 6.4 8.0 0.00 0.00 0.00 36 1016.9
20260504182337 16 174 3.2 3.2 0.00 0.00 0.00 36 1016.9
20260504181834 16 149 0.0 0.0 0.00 0.00 0.00 37 1017.4
20260504181331 16 195 3.2 3.2 0.00 0.00 0.00 37 1017.4
20260504180830 16 277 4.8 8.0 0.00 0.00 0.00 38 1017.3
20260504180328 16 225 4.8 4.8 0.00 0.00 0.00 37 1017.3
20260504175826 16 145 0.0 1.6 0.00 0.00 0.00 37 1017.4
20260504175322 15 174 4.8 4.8 0.00 0.00 0.00 40 1017.4
20260504174821 15 155 1.6 3.2 0.00 0.00 0.00 40 1017.8
20260504174318 15 204 6.4 8.0 0.00 0.00 0.00 38 1017.8
20260504173815 16 163 1.6 1.6 0.00 0.00 0.00 40 1017.8
20260504173311 15 141 0.0 0.0 0.00 0.00 0.00 41 1018.1
20260504172808 15 164 1.6 1.6 0.00 0.00 0.00 43 1017.9
20260504172305 15 184 1.6 3.2 0.00 0.00 0.00 42 1018.1
20260504171800 15 175 3.2 3.2 0.00 0.00 0.00 42 1018.1
20260504171258 14 133 1.6 3.2 0.00 0.00 0.00 43 1018.2
20260504170755 13 177 1.6 1.6 0.00 0.00 0.00 45 1018.2
20260504170252 13 149 0.0 0.0 0.00 0.00 0.00 45 1018.2
20260504160210 11 153 1.6 3.2 0.00 0.00 0.00 55 1019.1
20260504151138 11 143 0.0 0.0 0.00 0.00 0.00 56 1019.2
20260504150636 10 146 0.0 1.6 0.00 0.00 0.00 57 1018.8
20260504150133 11 141 1.6 1.6 0.00 0.00 0.00 57 1019.3